CDT,Max TemperatureF,Mean TemperatureF,Min TemperatureF,Max Dew PointF,MeanDew PointF,Min DewpointF,Max Humidity, Mean Humidity, Min Humidity, Max Sea Level PressureIn, Mean Sea Level PressureIn, Min Sea Level PressureIn, Max VisibilityMiles, Mean VisibilityMiles, Min VisibilityMiles, Max Wind SpeedMPH, Mean Wind SpeedMPH, Max Gust SpeedMPH,PrecipitationIn, CloudCover, Events, WindDirDegrees
2012-8-1,82,70,59,68,63,59,100,81,51,29.96,29.89,29.78,10,8,0,18,3,25,0.00,2,,248
2012-8-2,84,76,68,70,67,61,94,76,45,29.91,29.82,29.71,10,10,7,14,6,24,0.03,2,Thunderstorm,277
2012-8-3,75,68,62,70,65,61,100,87,78,29.98,29.95,29.91,10,10,10,14,8,17,0.00,5,,53
2012-8-4,84,75,66,72,68,64,100,84,55,29.95,29.85,29.79,10,8,0,24,5,38,0.17,2,Thunderstorm,231
2012-8-5,75,66,57,66,53,45,100,65,34,30.11,29.98,29.82,10,10,10,13,6,22,0.00,1,,297
2012-8-6,80,66,53,63,55,52,94,68,39,30.13,30.05,29.92,10,10,7,15,4,21,0.00,0,,256
2012-8-7,78,69,60,66,58,52,83,68,42,30.04,29.94,29.90,10,10,8,12,6,18,0.00,1,,304
2012-8-8,71,63,55,61,55,52,94,71,53,30.08,30.05,30.03,10,10,10,12,6,,0.03,5,,47
2012-8-9,69,63,57,61,56,54,94,83,56,30.03,30.00,29.97,10,10,5,15,6,24,0.22,7,Thunderstorm,32
2012-8-10,69,62,55,55,50,43,94,68,38,30.03,30.01,29.98,10,10,10,20,11,31,0.18,0,,8
2012-8-11,77,64,53,55,51,46,94,65,38,30.00,29.98,29.94,10,10,10,16,10,23,0.00,0,,3
2012-8-12,75,62,48,61,54,48,100,77,47,30.02,29.98,29.95,10,10,8,9,2,,0.00,0,,144
2012-8-13,77,66,57,64,59,55,100,84,53,29.96,29.93,29.90,10,10,4,24,2,48,0.18,2,Thunderstorm,267
2012-8-14,77,66,55,63,56,52,100,74,44,29.94,29.91,29.88,10,9,1,10,2,,0.00,2,,331
2012-8-15,77,65,53,64,60,52,94,78,57,29.95,29.90,29.82,10,10,7,15,5,20,0.00,2,,147
2012-8-16,73,66,60,66,60,52,94,76,53,29.86,29.75,29.68,10,10,7,13,7,22,0.22,5,Thunderstorm,274
2012-8-17,71,60,50,54,46,37,94,64,29,30.01,29.95,29.86,10,10,8,12,5,20,0.00,0,,315
2012-8-18,73,60,46,55,49,45,100,71,41,30.02,29.97,29.91,10,10,9,13,3,17,0.00,2,,276
2012-8-19,69,61,53,57,53,48,100,78,49,30.00,29.97,29.94,10,10,10,12,4,,0.02,5,,72
2012-8-20,73,60,46,57,50,45,100,74,41,30.00,29.97,29.94,10,10,8,17,3,21,0.01,2,,298
2012-8-21,78,64,51,61,54,48,100,73,41,30.05,30.02,29.99,10,10,10,9,2,,0.00,2,,273
2012-8-22,80,68,55,61,54,50,88,63,39,30.06,30.03,29.99,10,10,9,17,7,24,0.00,0,,237
2012-8-23,82,68,55,66,61,54,100,75,45,30.03,30.00,29.95,10,9,0,16,4,22,0.00,2,,198
2012-8-24,80,76,71,64,62,59,73,67,51,29.98,29.95,29.93,10,10,9,18,9,24,0.00,3,Thunderstorm,208
2012-8-25,89,76,62,66,63,57,100,63,35,30.02,29.99,29.95,10,8,0,15,7,17,0.00,0,,199
2012-8-26,73,70,66,70,66,61,100,88,65,30.05,29.99,29.94,10,6,2,10,4,,0.51,5,,216
2012-8-27,80,70,60,63,57,54,100,62,42,30.11,30.04,29.99,10,10,3,12,5,18,0.00,2,,342
2012-8-28,73,64,55,63,60,54,100,77,61,30.18,30.12,30.08,10,10,9,12,5,,0.00,2,,136
2012-8-29,80,68,57,66,63,55,100,69,58,30.10,30.03,29.95,10,10,5,14,6,17,0.00,0,,215
2012-8-30,87,76,66,68,65,57,83,61,49,29.95,29.85,29.77,10,10,8,23,12,32,0.00,0,,223
2012-8-31,78,74,62,66,61,54,83,64,42,30.12,29.95,29.85,10,10,10,13,5,,0.00,0,,311